Weather History for Kirksville, MO

Change the Weather History Date:

Wednesday, July 17, 2013

  Actual Average Record
Temperature  
Mean Temperature 80 °F 75 °F  
Max Temperature 93 °F 86 °F 106 °F (1936)
Min Temperature 67 °F 65 °F 51 °F (2014)
Degree Days  
Heating Degree Days 0 0  
Month to date heating degree days 0 0  
Since 1 June heating degree days 36 16  
Since 1 July heating degree days 0 0  
Cooling Degree Days 14 10  
Month to date cooling degree days 142 164  
Year to date cooling degree days 417 418  
Since 1 June cooling degree days 349 356  
Growing Degree Days 30 (Base 50)    
Moisture  
Dew Point 69 °F    
Average Humidity 73    
Maximum Humidity 100    
Minimum Humidity 46    
Precipitation  
Precipitation 0.00 in 0.16 in 2.31 in (1946)
Month to date precipitation T 2.41  
Year to date precipitation 27.91 21.34  
Sea Level Pressure  
Sea Level Pressure 30.30 in    
Wind  
Wind Speed 1 mph (WSW)    
Max Wind Speed 6 mph    
Max Gust Speed 9 mph    
Visibility 7 miles    
Events Fog    
T = Trace of Precipitation, MM = Missing Value Source: NWS Daily Summary

Daily Weather History Graph

Daily Weather History Graph

Search for Another Location

Airport:

Trip Planner

Search our weather history database for the weather conditions in past years. The results will help you decide how hot, cold, wet, or windy it might be!

Date:

Astronomy

Jul. 17, 2013 Rise Set
Actual Time 5:55 AM CDT 8:36 PM CDT
Civil Twilight 5:23 AM CDT 9:08 PM CDT
Nautical Twilight 4:44 AM CDT 9:48 PM CDT
Astronomical Twilight 3:58 AM CDT 10:32 PM CDT
Moon 3:26 PM CDT (7/17) 1:02 AM CDT (7/17)
Length of Visible Light 15h 44m
Length of Day
14h 41m
Waxing Gibbous, 67% of the Moon is Illuminated
Jul 17
Waxing Gibbous
Jul 22
Full
Jul 29
Last Quarter
Aug 6
New
Aug 14
First Quarter

Hourly Weather History & Observations

Time (CDT) Temp. Heat Index Dew Point Humidity Pressure Visibility Wind Dir Wind Speed Gust Speed Precip Events Conditions
12:55 AM 73.9 °F - 70.0 °F 87% 30.30 in 10.0 mi South 3.5 mph - N/A   Clear
1:55 AM 73.9 °F - 70.0 °F 87% 30.30 in 10.0 mi SSW 3.5 mph - N/A   Clear
2:55 AM 72.0 °F - 69.1 °F 91% 30.29 in 10.0 mi Calm Calm - N/A   Clear
3:55 AM 68.0 °F - 66.9 °F 96% 30.30 in 6.0 mi Calm Calm - N/A   Clear
4:55 AM 68.0 °F - 68.0 °F 100% 30.30 in 3.0 mi Calm Calm - N/A   Clear
5:02 AM 66.2 °F - 66.2 °F 100% 30.31 in 2.5 mi Calm Calm - N/A   Clear
5:14 AM 69.8 °F - 68.0 °F 94% 30.31 in 6.0 mi Calm Calm - N/A   Clear
5:55 AM 68.0 °F - 66.9 °F 96% 30.31 in 3.0 mi NE 3.5 mph - N/A   Clear
6:14 AM 68.0 °F - 66.2 °F 94% 30.33 in 1.8 mi Calm Calm - N/A   Clear
6:18 AM 68.0 °F - 66.2 °F 94% 30.33 in 0.5 mi Calm Calm - N/A Fog Fog
6:26 AM 69.8 °F - 68.0 °F 94% 30.32 in 1.2 mi Calm Calm - N/A   Clear
6:43 AM 69.8 °F - 69.8 °F 100% 30.33 in 3.0 mi Calm Calm - N/A   Clear
6:55 AM 71.1 °F - 70.0 °F 96% 30.31 in 5.0 mi Calm Calm - N/A   Clear
7:55 AM 79.0 °F - 72.0 °F 79% 30.33 in 10.0 mi Variable 3.5 mph - N/A   Clear
8:55 AM 82.9 °F 88.8 °F 73.0 °F 72% 30.33 in 10.0 mi West 3.5 mph - N/A   Clear
9:55 AM 87.1 °F 93.6 °F 72.0 °F 61% 30.33 in 10.0 mi NNW 3.5 mph - N/A   Clear
10:55 AM 89.1 °F 96.0 °F 72.0 °F 57% 30.33 in 10.0 mi Variable 3.5 mph - N/A   Clear
11:55 AM 91.0 °F 96.6 °F 70.0 °F 50% 30.32 in 10.0 mi WSW 3.5 mph - N/A   Partly Cloudy
12:55 PM 93.0 °F 99.0 °F 70.0 °F 47% 30.31 in 10.0 mi Variable 3.5 mph - N/A   Partly Cloudy
9:55 PM 77.0 °F - 72.0 °F 84% 30.22 in 10.0 mi Calm Calm - N/A   Clear
10:55 PM 73.0 °F - 71.1 °F 93% 30.23 in 7.0 mi Calm Calm - N/A   Clear
11:55 PM 73.9 °F - 71.1 °F 91% 30.24 in 7.0 mi Calm Calm - N/A   Clear